Regional Weather Roundup
Issued by NWS Grand Forks, ND

Home | Current Version | Previous Version | Graphics & Text | Print | Product List | Glossary On
Versions: 1 2 3 4 5 6 7 8 9 10 11 12 13 14 15 16 17 18 19 20 21 22 23 24 25 26 27 28 29 30 31 32 33 34 35 36 37 38 39 40 41 42 43 44 45 46 47 48 49 50
000
ASUS43 KFGF 251110
RWRFGF
NATIONAL WEATHER SERVICE EASTERN NORTH DAKOTA/GRAND FORKS ND
600 AM CDT MON MAY 25 2015

 **SATELLITE DATA USED TO AUGMENT SKY COVER AT AUTOMATED STATIONS**
 *****  WEATHER ACROSS EASTERN NORTH DAKOTA  *****

CITY           SKY/WX    TMP DP  RH WIND       PRES   REMARKS
GRAND FORKS    CLOUDY    55  51  86 S3        29.80F
GRAND FRKS AFB CLOUDY    55  51  89 SW3       29.80F
GRAND FRKS NWS   N/A     54 N/A N/A MISG        N/A
DEVILS LAKE    CLOUDY    57  46  67 CALM      29.82S
FARGO          LGT RAIN  58  56  93 N9        29.78F
WAHPETON ARPT  CLOUDY    55  54  94 N12       29.74S
$$

 ***** WEATHER ACROSS CENTRAL AND WESTERN NORTH DAKOTA  *****

CITY           SKY/WX    TMP DP  RH WIND       PRES   REMARKS
BISMARCK       LGT RAIN  56  55  97 N3        29.84S
MINOT          CLOUDY    52  47  83 CALM      29.85S
JAMESTOWN      LGT RAIN  57  54  89 N8        29.81F
MINOT AFB      CLOUDY    52  52 100 NW5       29.84S
GARRISON         N/A     54  51  90 NW6       29.85F
WILLISTON      PTCLDY    45  41  86 CALM      29.88S
DICKINSON      CLOUDY    53  49  86 E5        29.85S
HETTINGER      RAIN      53  52  96 NE7       29.85S FOG
$$

 *****  OTHER AIRPORT OBSERVATIONS IN OUR AREA  *****

CITY           SKY/WX    TMP DP  RH WIND       PRES   REMARKS
WALHALLA         N/A     54  46  76 CALM      29.81F
GRAFTON AIRPOR FAIR      54  54 100 W3        29.81F
VALLEY CITY AR LGT RAIN  55  55 100 N6        29.82F
CANDO          FAIR      54  48  82 N8        29.84S
CAVALIER APRT  FAIR      57  45  62 N9        29.80F
GWINNER        NOT AVBL
ROLLA          FAIR      55  48  76 NW10      29.86F
 ***** THE ABOVE OBSERVATIONS ARE NON NWS ARE NOT QUALITY
       CONTROLLED AND MAY MIS-REPORT RAIN FOR SNOW...
$$

  *****  WEATHER ACROSS NORTHERN MINNESOTA  *****

CITY           SKY/WX    TMP DP  RH WIND       PRES   REMARKS
FLAG ISLAND    CLOUDY    63  45  51 NE10      29.79F
WARROAD        CLOUDY    55  48  76 N3        29.80F
ROSEAU         CLOUDY    55  48  76 CALM      29.80F
HALLOCK        CLOUDY    54  48  82 CALM      29.79S
THF RVR FALLS  CLOUDY    57  50  77 CALM      29.81F
BAUDETTE       CLOUDY    53  50  89 CALM      29.79F
WASKISH        CLOUDY    57  54  88 CALM      29.81S
CROOKSTON      CLOUDY    57  52  82 CALM      29.81F
STEPHEN NDAWN    N/A     55  50  82 SW5         N/A
GREENBUSH NDAW   N/A     54  52  94 SE1         N/A
$$
  *****  WEATHER ACROSS CENTRAL AND WEST MINNESOTA  *****

CITY           SKY/WX    TMP DP  RH WIND       PRES   REMARKS
FOSSTON        DRIZZLE   54  50  87 CALM      29.82S
BEMIDJI        LGT RAIN  54  54  98 CALM      29.80F
PARK RAPIDS    LGT RAIN  58  55  90 NE9G18    29.75F
ELBOW LAKE     RAIN      56  56  98 NE7       29.71F
WADENA         RAIN      55  55 100 NE14G20   29.71F
DETROIT LAKES  LGT RAIN  55  54  94 NE10      29.78S
MOORHEAD       LGT RAIN  57  55  94 N12       29.78F
FERGUS FALLS   DRIZZLE   57  57 100 NE10G20   29.73F
MORRIS MN      LGT RAIN  57  57 100 N7        29.69F
STAPLES        RAIN      55  55 100 NE8       29.71F
$$
  *****  WEATHER ELSEWHERE ACROSS MINNESOTA  *****

CITY           SKY/WX    TMP DP  RH WIND       PRES   REMARKS
DULUTH         LGT RAIN  58  55  90 NE15      29.75F FOG
INTRNTL FALLS  CLOUDY    54  49  83 CALM      29.81F
ELY            LGT RAIN  55  54  94 CALM      29.82F
CLOQUET        RAIN      57  55  94 E7        29.74S
WHEATON        RAIN      54  54 100 N9        29.74S
BRAINERD       RAIN      57  56  96 NE9       29.72S FOG
HIBBING        LGT RAIN  57  54  89 NE3       29.79F
ALEXANDRIA     LGT RAIN  57  57 100 NE7       29.71S
SAINT CLOUD    LGT RAIN  57  56  96 E6        29.67F FOG
MINNEAPOLIS    CLOUDY    57  57 100 SE10      29.66F FOG
$$

  *****  WEATHER ACROSS SOUTH DAKOTA  *****

CITY           SKY/WX    TMP DP  RH WIND       PRES   REMARKS
SIOUX FALLS    CLOUDY    59  57  93 NW3       29.72S
BROOKINGS      CLOUDY    57  55  94 N7        29.72F
WATERTOWN      LGT RAIN  56  55  97 N7        29.72F
HURON          CLOUDY    57  56  96 N5        29.73F FOG
SISSETON         N/A     56  56 100 N13       29.72F
ABERDEEN       LGT RAIN  57  55  93 N9        29.76F FOG
MITCHELL       FOG       58  58 100 NW3       29.74R VSB 3/4
PIERRE         CLOUDY    56  56 100 NE6       29.76R FOG
MOBRIDGE       LGT RAIN  57  57 100 N6        29.78F FOG
RAPID CITY     CLOUDY    50  49  96 N3        29.83R
$$

  *****  SOME WEATHER IN NEARBY STATES *****

CITY           SKY/WX    TMP DP  RH WIND       PRES   REMARKS
GLASGOW MT     CLEAR     51  43  74 CALM      29.89S
GREAT FALLS MT CLEAR     45  41  86 CALM      29.93S
CHEYENNE WY    CLOUDY    44  41  89 NW6       29.88R
SCOTTSBLUFF NE LGT RAIN  51  50  96 NW7       29.82R
OMAHA NE       MOCLDY    62  61  96 S9        29.78R
DES MOINES IA  LGT RAIN  64  61  90 SW10      29.77S
DAVENPORT IA   CLOUDY    64  61  90 SW8       29.79R
CHICAGO IL     CLOUDY    70  62  76 S23G30    29.83S
EAU CLAIRE WI  LGT RAIN  57  56  96 E3        29.68F FOG
LA CROSSE WI   CLOUDY    63  61  93 S3        29.69S FOG
$$

  *****  SOME NATIONAL WEATHER *****

CITY           SKY/WX    TMP DP  RH WIND       PRES   REMARKS
LA GUARDIA NY  PTSUNNY   66  53  63 SW8       30.27R
RALEIGH NC     PTCLDY    60  57  89 CALM      30.35R
ATLANTA GA     MOCLDY    67  61  81 SE6       30.27R
NEW ORLEANS LA CLOUDY    77  73  87 S7        30.03R
OKLAHOMA CITY  CLOUDY    67  66  97 S14       29.85R
ALBUQUERQUE NM PTCLDY    49  46  90 SE3       29.99S
SALT LAKE CITY RAIN      53  47  79 S9        29.92S
LOS ANGELES CA PTCLDY    58  53  84 CALM      29.95F
BOISE ID       CLEAR     55  46  71 SE7       29.86F
SEATTLE WA     CLOUDY    53  48  83 SW3       30.02R
$$

*** WEATHER ACROSS MANITOBA...SASKATCHEWAN AND ONTARIO ***
                ***ONTARIO***

CITY           SKY/WX    TMP DP  RH WIND       PRES   REMARKS
GERALDTON      MOCLDY    46  45  93 SE2       29.89F
THUNDER BAY    CLOUDY    48  41  76 E5        29.87S
SIOUX LOOKOUT  CLOUDY    45  43  93 CALM      29.84F
TORONTO        PTSUNNY   64  50  59 E7        30.10F
BIG TROUT LK   CLEAR     39  34  81 E7        29.93F
PICKLE LAKE    PTCLDY    45  36  70 NE6       29.88
DRYDEN         CLEAR     54  46  76 E5        29.82F
KENORA         CLOUDY    59  39  47 NE8       29.83F
$$
                *** MANITOBA***

CITY           SKY/WX    TMP DP  RH WIND       PRES   REMARKS
BRANDON        MOCLDY    48  43  81 NW9       29.85F
DAUPHIN        CLEAR     61  43  51 W6        29.81F
ISLAND LAKE    CLEAR     45  39  81 E3        29.86F
PILOT MOUND      N/A     54  46  76 N9          N/A
THE PAS        PTCLDY    45  39  81 SE2       29.84F
THOMPSON       CLEAR     41  36  81 E5        29.88S
WINNIPEG       CLOUDY    48  43  81 NW6       29.84S
LYNN LAKE      CLEAR     39  36  87 CALM      29.85F
CHURCHILL      PTCLDY    28  25  86 SW6       29.96F WCI  22
GILLAM         CLEAR     28  27  93 E3        29.95F
$$
                ***SASKATCHEWAN***

CITY           SKY/WX    TMP DP  RH WIND       PRES   REMARKS
ESTEVAN        PTCLDY    46  45  93 E3        29.88F
KINDERSLEY     MOCLDY    50  28  43 CALM      29.89S
LLOYDMINSTER   CLOUDY    55  37  50 SW7       29.88S
PRINCE ALBERT  PTCLDY    43  41  93 CALM      29.85F
REGINA         PTCLDY    48  39  71 E3        29.88S
YORKTON        MOCLDY    52  45  76 W3        29.85F
N. BATTLEFORD  PTCLDY    46  41  81 W2        29.89S
LA RONGE       PTCLDY    41  36  81 CALM      29.82F
SASKATOON      PTCLDY    52  41  66 NE2       29.87F
SWIFT CURRENT  PTCLDY    54  36  50 SW3       29.90S
$$
NOTE: THESE ARE AUTOMATED STATIONS WITH LIMITED QUALITY CONTROL
      "FAIR" INDICATES FEW OR NO CLOUDS BELOW 12,000 FEET WITH NO
      SIGNIFICANT WEATHER AND/OR OBSTRUCTIONS TO VISIBILITY.
      SKY/WX - SKY CONDITION AND SIGNIFICANT WEATHER.
      TMP - AIR TEMPERATURE.    DP   - DEWPOINT TEMPERATURE.
      RH  - RELATIVE HUMIDITY.  PRES - PRESSURE.
      HX  - HEAT INDEX.         WCI  - WIND CHILL INDEX.
$


USA.gov is the U.S. government's official web portal to all federal, state and local government web resources and services.